Вернуться в каталог

THOR ABLESTAR DEB

АктивенLEO
NORAD 406·DEBRIS·🇺🇸 United States

Запущен Jun 29, 1961 с Cape Canaveral Space Force Station

Loading…

Ближайшие Пролёты (ближайшие 24 часа)

TLE

СвежийSource: Space-Track

Эпоха: Sep 6, 2026, 20:32 UTC

1 00406U 61015EF  26249.85590499  .00000205  00000-0  30293-3 0  9992
2 00406  66.7779 160.7516 0118418 338.2815  82.1498 13.69679677232384

Отслеживайте THOR ABLESTAR DEB в реальном времени с AllMySat

Download on the App Store